<?xml version="1.0" encoding="UTF-8" standalone="no" ?>
<gpx xmlns="http://www.topografix.com/GPX/1/1" xmlns:xsi="http://www.w3.org/2001/XMLSchema-instance" xsi:schemaLocation="http://www.topografix.com/GPX/1/1 http://www.topografix.com/GPX/1/1/gpx.xsd" version="1.1" creator="VisuGPX - https://www.visugpx.com">
  <metadata>
    <name>abbaretz_5Tresors_TourArche_22km</name>
    <desc><![CDATA[gnerando idor: 7059957_7059979_7060017_9914522]]></desc>
  </metadata>
  <trk>
    <name><![CDATA[Abbaretz_5Trésors_27.3km-7059979]]></name>
    <extensions>
      <line xmlns="http://www.topografix.com/GPX/gpx_style/0/2">
        <color>FF0000</color>
        <width>4</width>
      </line>
    </extensions>
    <trkseg>
      <trkpt lat="47.55466" lon="-1.52524">
        <ele>62</ele>
        <time>2023-10-29T15:21:05Z</time>
      </trkpt>
      <trkpt lat="47.55458" lon="-1.5252">
        <ele>62</ele>
        <time>2023-10-29T15:21:16Z</time>
      </trkpt>
      <trkpt lat="47.55449" lon="-1.52521">
        <ele>62</ele>
        <time>2023-10-29T15:21:28Z</time>
      </trkpt>
      <trkpt lat="47.553" lon="-1.52559">
        <ele>66</ele>
        <time>2023-10-29T15:24:50Z</time>
      </trkpt>
      <trkpt lat="47.55306" lon="-1.52422">
        <ele>66</ele>
        <time>2023-10-29T15:26:54Z</time>
      </trkpt>
      <trkpt lat="47.55402" lon="-1.52411">
        <ele>63</ele>
        <time>2023-10-29T15:29:02Z</time>
      </trkpt>
      <trkpt lat="47.55725" lon="-1.52352">
        <ele>63</ele>
        <time>2023-10-29T15:36:17Z</time>
      </trkpt>
      <trkpt lat="47.55827" lon="-1.52325">
        <ele>63</ele>
        <time>2023-10-29T15:38:35Z</time>
      </trkpt>
      <trkpt lat="47.55859" lon="-1.52112">
        <ele>56</ele>
        <time>2023-10-29T15:41:51Z</time>
      </trkpt>
      <trkpt lat="47.55876" lon="-1.52034">
        <ele>54</ele>
        <time>2023-10-29T15:43:05Z</time>
      </trkpt>
      <trkpt lat="47.55899" lon="-1.51965">
        <ele>53</ele>
        <time>2023-10-29T15:44:14Z</time>
      </trkpt>
      <trkpt lat="47.55926" lon="-1.51916">
        <ele>53</ele>
        <time>2023-10-29T15:45:11Z</time>
      </trkpt>
      <trkpt lat="47.55945" lon="-1.51923">
        <ele>53</ele>
        <time>2023-10-29T15:45:37Z</time>
      </trkpt>
      <trkpt lat="47.56012" lon="-1.51918">
        <ele>52</ele>
        <time>2023-10-29T15:47:07Z</time>
      </trkpt>
      <trkpt lat="47.5604" lon="-1.5192">
        <ele>52</ele>
        <time>2023-10-29T15:47:44Z</time>
      </trkpt>
      <trkpt lat="47.56202" lon="-1.51988">
        <ele>50</ele>
        <time>2023-10-29T15:51:29Z</time>
      </trkpt>
      <trkpt lat="47.56259" lon="-1.52011">
        <ele>49</ele>
        <time>2023-10-29T15:52:48Z</time>
      </trkpt>
      <trkpt lat="47.56253" lon="-1.51964">
        <ele>49</ele>
        <time>2023-10-29T15:53:31Z</time>
      </trkpt>
      <trkpt lat="47.56252" lon="-1.51933">
        <ele>49</ele>
        <time>2023-10-29T15:53:59Z</time>
      </trkpt>
      <trkpt lat="47.56273" lon="-1.5183">
        <ele>49</ele>
        <time>2023-10-29T15:55:36Z</time>
      </trkpt>
      <trkpt lat="47.56354" lon="-1.51897">
        <ele>50</ele>
        <time>2023-10-29T15:57:40Z</time>
      </trkpt>
      <trkpt lat="47.56418" lon="-1.51983">
        <ele>48</ele>
        <time>2023-10-29T15:59:35Z</time>
      </trkpt>
      <trkpt lat="47.5644" lon="-1.52001">
        <ele>48</ele>
        <time>2023-10-29T16:00:08Z</time>
      </trkpt>
      <trkpt lat="47.56462" lon="-1.52005">
        <ele>48</ele>
        <time>2023-10-29T16:00:38Z</time>
      </trkpt>
      <trkpt lat="47.56526" lon="-1.51994">
        <ele>48</ele>
        <time>2023-10-29T16:02:04Z</time>
      </trkpt>
      <trkpt lat="47.56542" lon="-1.51999">
        <ele>47</ele>
        <time>2023-10-29T16:02:26Z</time>
      </trkpt>
      <trkpt lat="47.56581" lon="-1.51962">
        <ele>47</ele>
        <time>2023-10-29T16:03:28Z</time>
      </trkpt>
      <trkpt lat="47.56579" lon="-1.51943">
        <ele>47</ele>
        <time>2023-10-29T16:03:45Z</time>
      </trkpt>
      <trkpt lat="47.56587" lon="-1.51702">
        <ele>46</ele>
        <time>2023-10-29T16:07:22Z</time>
      </trkpt>
      <trkpt lat="47.56579" lon="-1.51419">
        <ele>46</ele>
        <time>2023-10-29T16:11:37Z</time>
      </trkpt>
      <trkpt lat="47.56581" lon="-1.51372">
        <ele>47</ele>
        <time>2023-10-29T16:12:20Z</time>
      </trkpt>
      <trkpt lat="47.56641" lon="-1.50971">
        <ele>46</ele>
        <time>2023-10-29T16:18:30Z</time>
      </trkpt>
      <trkpt lat="47.56643" lon="-1.5096">
        <ele>46</ele>
        <time>2023-10-29T16:18:40Z</time>
      </trkpt>
      <trkpt lat="47.56671" lon="-1.50972">
        <ele>45</ele>
        <time>2023-10-29T16:19:19Z</time>
      </trkpt>
      <trkpt lat="47.56696" lon="-1.50974">
        <ele>44</ele>
        <time>2023-10-29T16:19:52Z</time>
      </trkpt>
      <trkpt lat="47.56767" lon="-1.50951">
        <ele>43</ele>
        <time>2023-10-29T16:21:29Z</time>
      </trkpt>
      <trkpt lat="47.56819" lon="-1.50955">
        <ele>44</ele>
        <time>2023-10-29T16:22:39Z</time>
      </trkpt>
      <trkpt lat="47.56825" lon="-1.50952">
        <ele>44</ele>
        <time>2023-10-29T16:22:47Z</time>
      </trkpt>
      <trkpt lat="47.56828" lon="-1.50935">
        <ele>43</ele>
        <time>2023-10-29T16:23:03Z</time>
      </trkpt>
      <trkpt lat="47.56831" lon="-1.50761">
        <ele>40</ele>
        <time>2023-10-29T16:25:40Z</time>
      </trkpt>
      <trkpt lat="47.56837" lon="-1.5075">
        <ele>40</ele>
        <time>2023-10-29T16:25:52Z</time>
      </trkpt>
      <trkpt lat="47.57186" lon="-1.50709">
        <ele>37</ele>
        <time>2023-10-29T16:33:39Z</time>
      </trkpt>
      <trkpt lat="47.57203" lon="-1.50701">
        <ele>37</ele>
        <time>2023-10-29T16:34:03Z</time>
      </trkpt>
      <trkpt lat="47.57195" lon="-1.50691">
        <ele>37</ele>
        <time>2023-10-29T16:34:17Z</time>
      </trkpt>
      <trkpt lat="47.57191" lon="-1.50679">
        <ele>37</ele>
        <time>2023-10-29T16:34:29Z</time>
      </trkpt>
      <trkpt lat="47.57182" lon="-1.50482">
        <ele>36</ele>
        <time>2023-10-29T16:37:27Z</time>
      </trkpt>
      <trkpt lat="47.5717" lon="-1.50446">
        <ele>37</ele>
        <time>2023-10-29T16:38:03Z</time>
      </trkpt>
      <trkpt lat="47.57102" lon="-1.50285">
        <ele>37</ele>
        <time>2023-10-29T16:40:54Z</time>
      </trkpt>
      <trkpt lat="47.57036" lon="-1.50074">
        <ele>37</ele>
        <time>2023-10-29T16:44:24Z</time>
      </trkpt>
      <trkpt lat="47.57026" lon="-1.49931">
        <ele>39</ele>
        <time>2023-10-29T16:46:33Z</time>
      </trkpt>
      <trkpt lat="47.57027" lon="-1.49891">
        <ele>39</ele>
        <time>2023-10-29T16:47:09Z</time>
      </trkpt>
      <trkpt lat="47.5703" lon="-1.4985">
        <ele>39</ele>
        <time>2023-10-29T16:47:46Z</time>
      </trkpt>
      <trkpt lat="47.57025" lon="-1.49799">
        <ele>39</ele>
        <time>2023-10-29T16:48:33Z</time>
      </trkpt>
      <trkpt lat="47.57018" lon="-1.49751">
        <ele>39</ele>
        <time>2023-10-29T16:49:17Z</time>
      </trkpt>
      <trkpt lat="47.5701" lon="-1.49719">
        <ele>39</ele>
        <time>2023-10-29T16:49:48Z</time>
      </trkpt>
      <trkpt lat="47.57008" lon="-1.49708">
        <ele>39</ele>
        <time>2023-10-29T16:49:58Z</time>
      </trkpt>
      <trkpt lat="47.57011" lon="-1.49651">
        <ele>39</ele>
        <time>2023-10-29T16:50:49Z</time>
      </trkpt>
      <trkpt lat="47.57009" lon="-1.49607">
        <ele>39</ele>
        <time>2023-10-29T16:51:29Z</time>
      </trkpt>
      <trkpt lat="47.57001" lon="-1.49602">
        <ele>39</ele>
        <time>2023-10-29T16:51:41Z</time>
      </trkpt>
      <trkpt lat="47.56986" lon="-1.49578">
        <ele>39</ele>
        <time>2023-10-29T16:52:10Z</time>
      </trkpt>
      <trkpt lat="47.56894" lon="-1.49492">
        <ele>39</ele>
        <time>2023-10-29T16:54:35Z</time>
      </trkpt>
      <trkpt lat="47.56786" lon="-1.49462">
        <ele>39</ele>
        <time>2023-10-29T16:57:02Z</time>
      </trkpt>
      <trkpt lat="47.56812" lon="-1.49166">
        <ele>36</ele>
        <time>2023-10-29T17:01:31Z</time>
      </trkpt>
      <trkpt lat="47.57095" lon="-1.49168">
        <ele>38</ele>
        <time>2023-10-29T17:07:48Z</time>
      </trkpt>
      <trkpt lat="47.57201" lon="-1.49161">
        <ele>35</ele>
        <time>2023-10-29T17:10:10Z</time>
      </trkpt>
      <trkpt lat="47.57241" lon="-1.49152">
        <ele>36</ele>
        <time>2023-10-29T17:11:04Z</time>
      </trkpt>
      <trkpt lat="47.57337" lon="-1.49092">
        <ele>40</ele>
        <time>2023-10-29T17:13:23Z</time>
      </trkpt>
      <trkpt lat="47.57343" lon="-1.4908">
        <ele>40</ele>
        <time>2023-10-29T17:13:36Z</time>
      </trkpt>
      <trkpt lat="47.57346" lon="-1.49061">
        <ele>41</ele>
        <time>2023-10-29T17:13:54Z</time>
      </trkpt>
      <trkpt lat="47.57327" lon="-1.48965">
        <ele>44</ele>
        <time>2023-10-29T17:15:24Z</time>
      </trkpt>
      <trkpt lat="47.57327" lon="-1.48922">
        <ele>48</ele>
        <time>2023-10-29T17:16:03Z</time>
      </trkpt>
      <trkpt lat="47.57378" lon="-1.487">
        <ele>55</ele>
        <time>2023-10-29T17:19:34Z</time>
      </trkpt>
      <trkpt lat="47.57389" lon="-1.48666">
        <ele>55</ele>
        <time>2023-10-29T17:20:08Z</time>
      </trkpt>
      <trkpt lat="47.57402" lon="-1.48649">
        <ele>55</ele>
        <time>2023-10-29T17:20:31Z</time>
      </trkpt>
      <trkpt lat="47.57507" lon="-1.48616">
        <ele>58</ele>
        <time>2023-10-29T17:22:54Z</time>
      </trkpt>
      <trkpt lat="47.57518" lon="-1.4861">
        <ele>58</ele>
        <time>2023-10-29T17:23:10Z</time>
      </trkpt>
      <trkpt lat="47.57526" lon="-1.486">
        <ele>58</ele>
        <time>2023-10-29T17:23:24Z</time>
      </trkpt>
      <trkpt lat="47.57531" lon="-1.48573">
        <ele>59</ele>
        <time>2023-10-29T17:23:49Z</time>
      </trkpt>
      <trkpt lat="47.57528" lon="-1.48474">
        <ele>60</ele>
        <time>2023-10-29T17:25:18Z</time>
      </trkpt>
      <trkpt lat="47.57532" lon="-1.48418">
        <ele>61</ele>
        <time>2023-10-29T17:26:09Z</time>
      </trkpt>
      <trkpt lat="47.57569" lon="-1.48271">
        <ele>63</ele>
        <time>2023-10-29T17:28:30Z</time>
      </trkpt>
      <trkpt lat="47.5758" lon="-1.48252">
        <ele>63</ele>
        <time>2023-10-29T17:28:53Z</time>
      </trkpt>
      <trkpt lat="47.57574" lon="-1.48222">
        <ele>63</ele>
        <time>2023-10-29T17:29:21Z</time>
      </trkpt>
      <trkpt lat="47.57572" lon="-1.48181">
        <ele>64</ele>
        <time>2023-10-29T17:29:58Z</time>
      </trkpt>
      <trkpt lat="47.57573" lon="-1.48081">
        <ele>66</ele>
        <time>2023-10-29T17:31:28Z</time>
      </trkpt>
      <trkpt lat="47.57577" lon="-1.48026">
        <ele>67</ele>
        <time>2023-10-29T17:32:18Z</time>
      </trkpt>
      <trkpt lat="47.5759" lon="-1.47969">
        <ele>66</ele>
        <time>2023-10-29T17:33:12Z</time>
      </trkpt>
      <trkpt lat="47.5759" lon="-1.47969">
        <ele>66</ele>
        <time>2023-10-29T17:33:12Z</time>
      </trkpt>
      <trkpt lat="47.57183" lon="-1.4786">
        <ele>46</ele>
        <time>2023-10-29T17:42:24Z</time>
      </trkpt>
      <trkpt lat="47.56955" lon="-1.47793">
        <ele>41</ele>
        <time>2023-10-29T17:47:34Z</time>
      </trkpt>
      <trkpt lat="47.56818" lon="-1.47756">
        <ele>39</ele>
        <time>2023-10-29T17:50:40Z</time>
      </trkpt>
      <trkpt lat="47.55813" lon="-1.46985">
        <ele>69</ele>
        <time>2023-10-29T18:15:50Z</time>
      </trkpt>
      <trkpt lat="47.55817" lon="-1.46983">
        <ele>68</ele>
        <time>2023-10-29T18:15:56Z</time>
      </trkpt>
      <trkpt lat="47.55817" lon="-1.46983">
        <ele>68</ele>
        <time>2023-10-29T18:15:56Z</time>
      </trkpt>
      <trkpt lat="47.55834" lon="-1.46977">
        <ele>68</ele>
        <time>2023-10-29T18:16:19Z</time>
      </trkpt>
      <trkpt lat="47.55863" lon="-1.46959">
        <ele>66</ele>
        <time>2023-10-29T18:17:01Z</time>
      </trkpt>
      <trkpt lat="47.56061" lon="-1.46795">
        <ele>61</ele>
        <time>2023-10-29T18:22:03Z</time>
      </trkpt>
      <trkpt lat="47.56218" lon="-1.46703">
        <ele>55</ele>
        <time>2023-10-29T18:25:49Z</time>
      </trkpt>
      <trkpt lat="47.56258" lon="-1.46665">
        <ele>53</ele>
        <time>2023-10-29T18:26:52Z</time>
      </trkpt>
      <trkpt lat="47.564" lon="-1.46507">
        <ele>50</ele>
        <time>2023-10-29T18:30:49Z</time>
      </trkpt>
      <trkpt lat="47.5642" lon="-1.46475">
        <ele>51</ele>
        <time>2023-10-29T18:31:28Z</time>
      </trkpt>
      <trkpt lat="47.56426" lon="-1.46459">
        <ele>51</ele>
        <time>2023-10-29T18:31:45Z</time>
      </trkpt>
      <trkpt lat="47.56439" lon="-1.46163">
        <ele>61</ele>
        <time>2023-10-29T18:36:12Z</time>
      </trkpt>
      <trkpt lat="47.56431" lon="-1.45863">
        <ele>61</ele>
        <time>2023-10-29T18:40:42Z</time>
      </trkpt>
      <trkpt lat="47.56475" lon="-1.45426">
        <ele>59</ele>
        <time>2023-10-29T18:47:20Z</time>
      </trkpt>
      <trkpt lat="47.56546" lon="-1.45112">
        <ele>57</ele>
        <time>2023-10-29T18:52:18Z</time>
      </trkpt>
      <trkpt lat="47.5657" lon="-1.45041">
        <ele>59</ele>
        <time>2023-10-29T18:53:30Z</time>
      </trkpt>
      <trkpt lat="47.56577" lon="-1.44882">
        <ele>62</ele>
        <time>2023-10-29T18:55:53Z</time>
      </trkpt>
      <trkpt lat="47.56596" lon="-1.4471">
        <ele>62</ele>
        <time>2023-10-29T18:58:30Z</time>
      </trkpt>
      <trkpt lat="47.5664" lon="-1.44385">
        <ele>56</ele>
        <time>2023-10-29T19:03:29Z</time>
      </trkpt>
      <trkpt lat="47.56531" lon="-1.44333">
        <ele>64</ele>
        <time>2023-10-29T19:06:02Z</time>
      </trkpt>
      <trkpt lat="47.56532" lon="-1.44304">
        <ele>64</ele>
        <time>2023-10-29T19:06:28Z</time>
      </trkpt>
      <trkpt lat="47.565" lon="-1.44256">
        <ele>69</ele>
        <time>2023-10-29T19:07:28Z</time>
      </trkpt>
      <trkpt lat="47.5649" lon="-1.44249">
        <ele>69</ele>
        <time>2023-10-29T19:07:43Z</time>
      </trkpt>
      <trkpt lat="47.56315" lon="-1.44186">
        <ele>79</ele>
        <time>2023-10-29T19:11:44Z</time>
      </trkpt>
      <trkpt lat="47.56168" lon="-1.4414">
        <ele>84</ele>
        <time>2023-10-29T19:15:04Z</time>
      </trkpt>
      <trkpt lat="47.56182" lon="-1.44046">
        <ele>84</ele>
        <time>2023-10-29T19:16:31Z</time>
      </trkpt>
      <trkpt lat="47.56185" lon="-1.43949">
        <ele>82</ele>
        <time>2023-10-29T19:17:58Z</time>
      </trkpt>
      <trkpt lat="47.56058" lon="-1.43926">
        <ele>78</ele>
        <time>2023-10-29T19:20:49Z</time>
      </trkpt>
      <trkpt lat="47.56054" lon="-1.43995">
        <ele>79</ele>
        <time>2023-10-29T19:21:51Z</time>
      </trkpt>
      <trkpt lat="47.55802" lon="-1.43986">
        <ele>63</ele>
        <time>2023-10-29T19:27:28Z</time>
      </trkpt>
      <trkpt lat="47.55753" lon="-1.44009">
        <ele>60</ele>
        <time>2023-10-29T19:28:36Z</time>
      </trkpt>
      <trkpt lat="47.5567" lon="-1.44045">
        <ele>56</ele>
        <time>2023-10-29T19:30:32Z</time>
      </trkpt>
      <trkpt lat="47.55645" lon="-1.44051">
        <ele>55</ele>
        <time>2023-10-29T19:31:05Z</time>
      </trkpt>
      <trkpt lat="47.55608" lon="-1.44051">
        <ele>54</ele>
        <time>2023-10-29T19:31:55Z</time>
      </trkpt>
      <trkpt lat="47.55586" lon="-1.44041">
        <ele>53</ele>
        <time>2023-10-29T19:32:26Z</time>
      </trkpt>
      <trkpt lat="47.55533" lon="-1.4398">
        <ele>52</ele>
        <time>2023-10-29T19:33:55Z</time>
      </trkpt>
      <trkpt lat="47.55441" lon="-1.4393">
        <ele>51</ele>
        <time>2023-10-29T19:36:06Z</time>
      </trkpt>
      <trkpt lat="47.5538" lon="-1.43789">
        <ele>49</ele>
        <time>2023-10-29T19:38:37Z</time>
      </trkpt>
      <trkpt lat="47.55364" lon="-1.43766">
        <ele>49</ele>
        <time>2023-10-29T19:39:06Z</time>
      </trkpt>
      <trkpt lat="47.55351" lon="-1.43757">
        <ele>49</ele>
        <time>2023-10-29T19:39:26Z</time>
      </trkpt>
      <trkpt lat="47.55331" lon="-1.43756">
        <ele>48</ele>
        <time>2023-10-29T19:39:52Z</time>
      </trkpt>
      <trkpt lat="47.55267" lon="-1.43776">
        <ele>45</ele>
        <time>2023-10-29T19:41:20Z</time>
      </trkpt>
      <trkpt lat="47.55157" lon="-1.43851">
        <ele>45</ele>
        <time>2023-10-29T19:44:01Z</time>
      </trkpt>
      <trkpt lat="47.55113" lon="-1.43894">
        <ele>45</ele>
        <time>2023-10-29T19:45:12Z</time>
      </trkpt>
      <trkpt lat="47.55102" lon="-1.43922">
        <ele>45</ele>
        <time>2023-10-29T19:45:41Z</time>
      </trkpt>
      <trkpt lat="47.55" lon="-1.4428">
        <ele>47</ele>
        <time>2023-10-29T19:51:31Z</time>
      </trkpt>
      <trkpt lat="47.54926" lon="-1.44503">
        <ele>52</ele>
        <time>2023-10-29T19:55:15Z</time>
      </trkpt>
      <trkpt lat="47.54924" lon="-1.44512">
        <ele>52</ele>
        <time>2023-10-29T19:55:23Z</time>
      </trkpt>
      <trkpt lat="47.5514" lon="-1.44594">
        <ele>51</ele>
        <time>2023-10-29T20:00:21Z</time>
      </trkpt>
      <trkpt lat="47.55189" lon="-1.46475">
        <ele>64</ele>
        <time>2023-10-29T20:28:36Z</time>
      </trkpt>
      <trkpt lat="47.55295" lon="-1.46633">
        <ele>67</ele>
        <time>2023-10-29T20:31:57Z</time>
      </trkpt>
      <trkpt lat="47.55258" lon="-1.47066">
        <ele>67</ele>
        <time>2023-10-29T20:38:30Z</time>
      </trkpt>
      <trkpt lat="47.55541" lon="-1.47062">
        <ele>80</ele>
        <time>2023-10-29T20:44:47Z</time>
      </trkpt>
      <trkpt lat="47.55557" lon="-1.4762">
        <ele>83</ele>
        <time>2023-10-29T20:53:10Z</time>
      </trkpt>
      <trkpt lat="47.55035" lon="-1.47561">
        <ele>61</ele>
        <time>2023-10-29T21:04:49Z</time>
      </trkpt>
      <trkpt lat="47.55027" lon="-1.48258">
        <ele>62</ele>
        <time>2023-10-29T21:15:17Z</time>
      </trkpt>
      <trkpt lat="47.54812" lon="-1.48248">
        <ele>60</ele>
        <time>2023-10-29T21:20:04Z</time>
      </trkpt>
      <trkpt lat="47.5479" lon="-1.48477">
        <ele>59</ele>
        <time>2023-10-29T21:23:32Z</time>
      </trkpt>
      <trkpt lat="47.5474" lon="-1.48709">
        <ele>58</ele>
        <time>2023-10-29T21:27:12Z</time>
      </trkpt>
      <trkpt lat="47.54692" lon="-1.48889">
        <ele>58</ele>
        <time>2023-10-29T21:30:06Z</time>
      </trkpt>
      <trkpt lat="47.54905" lon="-1.48876">
        <ele>58</ele>
        <time>2023-10-29T21:34:50Z</time>
      </trkpt>
      <trkpt lat="47.5501" lon="-1.4886">
        <ele>60</ele>
        <time>2023-10-29T21:37:11Z</time>
      </trkpt>
      <trkpt lat="47.55053" lon="-1.48847">
        <ele>61</ele>
        <time>2023-10-29T21:38:10Z</time>
      </trkpt>
      <trkpt lat="47.55204" lon="-1.48789">
        <ele>64</ele>
        <time>2023-10-29T21:41:38Z</time>
      </trkpt>
      <trkpt lat="47.55296" lon="-1.48762">
        <ele>68</ele>
        <time>2023-10-29T21:43:43Z</time>
      </trkpt>
      <trkpt lat="47.55318" lon="-1.48769">
        <ele>69</ele>
        <time>2023-10-29T21:44:13Z</time>
      </trkpt>
      <trkpt lat="47.5537" lon="-1.488">
        <ele>71</ele>
        <time>2023-10-29T21:45:28Z</time>
      </trkpt>
      <trkpt lat="47.55435" lon="-1.48833">
        <ele>74</ele>
        <time>2023-10-29T21:47:00Z</time>
      </trkpt>
      <trkpt lat="47.55527" lon="-1.48871">
        <ele>78</ele>
        <time>2023-10-29T21:49:07Z</time>
      </trkpt>
      <trkpt lat="47.55558" lon="-1.48878">
        <ele>77</ele>
        <time>2023-10-29T21:49:49Z</time>
      </trkpt>
      <trkpt lat="47.55559" lon="-1.48913">
        <ele>75</ele>
        <time>2023-10-29T21:50:21Z</time>
      </trkpt>
      <trkpt lat="47.55585" lon="-1.48935">
        <ele>75</ele>
        <time>2023-10-29T21:51:01Z</time>
      </trkpt>
      <trkpt lat="47.55608" lon="-1.48946">
        <ele>74</ele>
        <time>2023-10-29T21:51:33Z</time>
      </trkpt>
      <trkpt lat="47.55628" lon="-1.48955">
        <ele>73</ele>
        <time>2023-10-29T21:52:01Z</time>
      </trkpt>
      <trkpt lat="47.55667" lon="-1.48963">
        <ele>71</ele>
        <time>2023-10-29T21:52:53Z</time>
      </trkpt>
      <trkpt lat="47.55719" lon="-1.49002">
        <ele>66</ele>
        <time>2023-10-29T21:54:11Z</time>
      </trkpt>
      <trkpt lat="47.55799" lon="-1.49047">
        <ele>59</ele>
        <time>2023-10-29T21:56:05Z</time>
      </trkpt>
      <trkpt lat="47.55804" lon="-1.49056">
        <ele>59</ele>
        <time>2023-10-29T21:56:16Z</time>
      </trkpt>
      <trkpt lat="47.56018" lon="-1.49154">
        <ele>51</ele>
        <time>2023-10-29T22:01:15Z</time>
      </trkpt>
      <trkpt lat="47.56028" lon="-1.49154">
        <ele>51</ele>
        <time>2023-10-29T22:01:28Z</time>
      </trkpt>
      <trkpt lat="47.56043" lon="-1.49144">
        <ele>50</ele>
        <time>2023-10-29T22:01:50Z</time>
      </trkpt>
      <trkpt lat="47.5605" lon="-1.49149">
        <ele>50</ele>
        <time>2023-10-29T22:02:00Z</time>
      </trkpt>
      <trkpt lat="47.56044" lon="-1.49161">
        <ele>50</ele>
        <time>2023-10-29T22:02:14Z</time>
      </trkpt>
      <trkpt lat="47.56079" lon="-1.49166">
        <ele>50</ele>
        <time>2023-10-29T22:03:01Z</time>
      </trkpt>
      <trkpt lat="47.56161" lon="-1.49167">
        <ele>47</ele>
        <time>2023-10-29T22:04:50Z</time>
      </trkpt>
      <trkpt lat="47.56812" lon="-1.49166">
        <ele>36</ele>
        <time>2023-10-29T22:19:19Z</time>
      </trkpt>
      <trkpt lat="47.56786" lon="-1.49462">
        <ele>39</ele>
        <time>2023-10-29T22:23:48Z</time>
      </trkpt>
      <trkpt lat="47.56774" lon="-1.49606">
        <ele>40</ele>
        <time>2023-10-29T22:25:58Z</time>
      </trkpt>
      <trkpt lat="47.56661" lon="-1.49605">
        <ele>40</ele>
        <time>2023-10-29T22:28:29Z</time>
      </trkpt>
      <trkpt lat="47.56319" lon="-1.49615">
        <ele>42</ele>
        <time>2023-10-29T22:36:05Z</time>
      </trkpt>
      <trkpt lat="47.56287" lon="-1.49616">
        <ele>43</ele>
        <time>2023-10-29T22:36:48Z</time>
      </trkpt>
      <trkpt lat="47.56274" lon="-1.49622">
        <ele>44</ele>
        <time>2023-10-29T22:37:06Z</time>
      </trkpt>
      <trkpt lat="47.56262" lon="-1.49642">
        <ele>44</ele>
        <time>2023-10-29T22:37:30Z</time>
      </trkpt>
      <trkpt lat="47.56253" lon="-1.49687">
        <ele>44</ele>
        <time>2023-10-29T22:38:13Z</time>
      </trkpt>
      <trkpt lat="47.56186" lon="-1.50123">
        <ele>48</ele>
        <time>2023-10-29T22:44:55Z</time>
      </trkpt>
      <trkpt lat="47.56046" lon="-1.50168">
        <ele>51</ele>
        <time>2023-10-29T22:48:07Z</time>
      </trkpt>
      <trkpt lat="47.55909" lon="-1.50217">
        <ele>55</ele>
        <time>2023-10-29T22:51:15Z</time>
      </trkpt>
      <trkpt lat="47.55894" lon="-1.50226">
        <ele>56</ele>
        <time>2023-10-29T22:51:36Z</time>
      </trkpt>
      <trkpt lat="47.55882" lon="-1.50351">
        <ele>57</ele>
        <time>2023-10-29T22:53:30Z</time>
      </trkpt>
      <trkpt lat="47.5587" lon="-1.50442">
        <ele>57</ele>
        <time>2023-10-29T22:54:53Z</time>
      </trkpt>
      <trkpt lat="47.5592" lon="-1.50516">
        <ele>56</ele>
        <time>2023-10-29T22:56:28Z</time>
      </trkpt>
      <trkpt lat="47.55933" lon="-1.50544">
        <ele>56</ele>
        <time>2023-10-29T22:56:58Z</time>
      </trkpt>
      <trkpt lat="47.55965" lon="-1.5063">
        <ele>55</ele>
        <time>2023-10-29T22:58:27Z</time>
      </trkpt>
      <trkpt lat="47.55986" lon="-1.50671">
        <ele>55</ele>
        <time>2023-10-29T22:59:13Z</time>
      </trkpt>
      <trkpt lat="47.56016" lon="-1.50717">
        <ele>55</ele>
        <time>2023-10-29T23:00:11Z</time>
      </trkpt>
      <trkpt lat="47.56022" lon="-1.50737">
        <ele>54</ele>
        <time>2023-10-29T23:00:30Z</time>
      </trkpt>
      <trkpt lat="47.55919" lon="-1.5087">
        <ele>57</ele>
        <time>2023-10-29T23:03:33Z</time>
      </trkpt>
      <trkpt lat="47.55913" lon="-1.50911">
        <ele>57</ele>
        <time>2023-10-29T23:04:11Z</time>
      </trkpt>
      <trkpt lat="47.55916" lon="-1.50977">
        <ele>56</ele>
        <time>2023-10-29T23:05:10Z</time>
      </trkpt>
      <trkpt lat="47.55926" lon="-1.51014">
        <ele>56</ele>
        <time>2023-10-29T23:05:46Z</time>
      </trkpt>
      <trkpt lat="47.55942" lon="-1.51036">
        <ele>55</ele>
        <time>2023-10-29T23:06:15Z</time>
      </trkpt>
      <trkpt lat="47.55964" lon="-1.51052">
        <ele>55</ele>
        <time>2023-10-29T23:06:48Z</time>
      </trkpt>
      <trkpt lat="47.55992" lon="-1.51084">
        <ele>55</ele>
        <time>2023-10-29T23:07:35Z</time>
      </trkpt>
      <trkpt lat="47.56003" lon="-1.5109">
        <ele>55</ele>
        <time>2023-10-29T23:07:51Z</time>
      </trkpt>
      <trkpt lat="47.56019" lon="-1.5109">
        <ele>55</ele>
        <time>2023-10-29T23:08:12Z</time>
      </trkpt>
      <trkpt lat="47.56059" lon="-1.5107">
        <ele>54</ele>
        <time>2023-10-29T23:09:08Z</time>
      </trkpt>
      <trkpt lat="47.56141" lon="-1.51079">
        <ele>53</ele>
        <time>2023-10-29T23:10:58Z</time>
      </trkpt>
      <trkpt lat="47.56147" lon="-1.50958">
        <ele>52</ele>
        <time>2023-10-29T23:12:47Z</time>
      </trkpt>
      <trkpt lat="47.56145" lon="-1.50778">
        <ele>50</ele>
        <time>2023-10-29T23:15:29Z</time>
      </trkpt>
      <trkpt lat="47.56281" lon="-1.50754">
        <ele>48</ele>
        <time>2023-10-29T23:18:32Z</time>
      </trkpt>
      <trkpt lat="47.56304" lon="-1.50754">
        <ele>47</ele>
        <time>2023-10-29T23:19:03Z</time>
      </trkpt>
      <trkpt lat="47.56388" lon="-1.50785">
        <ele>48</ele>
        <time>2023-10-29T23:20:58Z</time>
      </trkpt>
      <trkpt lat="47.56475" lon="-1.50786">
        <ele>47</ele>
        <time>2023-10-29T23:22:54Z</time>
      </trkpt>
      <trkpt lat="47.56489" lon="-1.50794">
        <ele>47</ele>
        <time>2023-10-29T23:23:15Z</time>
      </trkpt>
      <trkpt lat="47.56532" lon="-1.50835">
        <ele>48</ele>
        <time>2023-10-29T23:24:23Z</time>
      </trkpt>
      <trkpt lat="47.56536" lon="-1.50839">
        <ele>48</ele>
        <time>2023-10-29T23:24:29Z</time>
      </trkpt>
      <trkpt lat="47.56583" lon="-1.50874">
        <ele>47</ele>
        <time>2023-10-29T23:25:39Z</time>
      </trkpt>
      <trkpt lat="47.56651" lon="-1.50905">
        <ele>45</ele>
        <time>2023-10-29T23:27:14Z</time>
      </trkpt>
      <trkpt lat="47.56643" lon="-1.5096">
        <ele>46</ele>
        <time>2023-10-29T23:28:05Z</time>
      </trkpt>
      <trkpt lat="47.56641" lon="-1.50971">
        <ele>46</ele>
        <time>2023-10-29T23:28:15Z</time>
      </trkpt>
      <trkpt lat="47.56581" lon="-1.51372">
        <ele>47</ele>
        <time>2023-10-29T23:34:25Z</time>
      </trkpt>
      <trkpt lat="47.56579" lon="-1.51419">
        <ele>46</ele>
        <time>2023-10-29T23:35:07Z</time>
      </trkpt>
      <trkpt lat="47.56587" lon="-1.51702">
        <ele>46</ele>
        <time>2023-10-29T23:39:23Z</time>
      </trkpt>
      <trkpt lat="47.56579" lon="-1.51943">
        <ele>47</ele>
        <time>2023-10-29T23:43:00Z</time>
      </trkpt>
      <trkpt lat="47.56581" lon="-1.51962">
        <ele>47</ele>
        <time>2023-10-29T23:43:17Z</time>
      </trkpt>
      <trkpt lat="47.56542" lon="-1.51999">
        <ele>47</ele>
        <time>2023-10-29T23:44:19Z</time>
      </trkpt>
      <trkpt lat="47.56526" lon="-1.51994">
        <ele>48</ele>
        <time>2023-10-29T23:44:41Z</time>
      </trkpt>
      <trkpt lat="47.56462" lon="-1.52005">
        <ele>48</ele>
        <time>2023-10-29T23:46:07Z</time>
      </trkpt>
      <trkpt lat="47.5644" lon="-1.52001">
        <ele>48</ele>
        <time>2023-10-29T23:46:36Z</time>
      </trkpt>
      <trkpt lat="47.56418" lon="-1.51983">
        <ele>48</ele>
        <time>2023-10-29T23:47:10Z</time>
      </trkpt>
      <trkpt lat="47.56354" lon="-1.51897">
        <ele>50</ele>
        <time>2023-10-29T23:49:05Z</time>
      </trkpt>
      <trkpt lat="47.56273" lon="-1.5183">
        <ele>49</ele>
        <time>2023-10-29T23:51:09Z</time>
      </trkpt>
      <trkpt lat="47.56252" lon="-1.51933">
        <ele>49</ele>
        <time>2023-10-29T23:52:46Z</time>
      </trkpt>
      <trkpt lat="47.56253" lon="-1.51964">
        <ele>49</ele>
        <time>2023-10-29T23:53:14Z</time>
      </trkpt>
      <trkpt lat="47.56259" lon="-1.52011">
        <ele>49</ele>
        <time>2023-10-29T23:53:57Z</time>
      </trkpt>
      <trkpt lat="47.56202" lon="-1.51988">
        <ele>50</ele>
        <time>2023-10-29T23:55:16Z</time>
      </trkpt>
      <trkpt lat="47.5604" lon="-1.5192">
        <ele>52</ele>
        <time>2023-10-29T23:59:00Z</time>
      </trkpt>
      <trkpt lat="47.56012" lon="-1.51918">
        <ele>52</ele>
        <time>2023-10-29T23:59:38Z</time>
      </trkpt>
      <trkpt lat="47.55945" lon="-1.51923">
        <ele>53</ele>
        <time>2023-10-30T00:01:07Z</time>
      </trkpt>
      <trkpt lat="47.55926" lon="-1.51916">
        <ele>53</ele>
        <time>2023-10-30T00:01:33Z</time>
      </trkpt>
      <trkpt lat="47.55899" lon="-1.51965">
        <ele>53</ele>
        <time>2023-10-30T00:02:30Z</time>
      </trkpt>
      <trkpt lat="47.55876" lon="-1.52034">
        <ele>54</ele>
        <time>2023-10-30T00:03:40Z</time>
      </trkpt>
      <trkpt lat="47.55859" lon="-1.52112">
        <ele>56</ele>
        <time>2023-10-30T00:04:53Z</time>
      </trkpt>
      <trkpt lat="47.55827" lon="-1.52325">
        <ele>63</ele>
        <time>2023-10-30T00:08:10Z</time>
      </trkpt>
      <trkpt lat="47.55725" lon="-1.52352">
        <ele>63</ele>
        <time>2023-10-30T00:10:28Z</time>
      </trkpt>
      <trkpt lat="47.55402" lon="-1.52411">
        <ele>63</ele>
        <time>2023-10-30T00:17:43Z</time>
      </trkpt>
      <trkpt lat="47.55306" lon="-1.52422">
        <ele>66</ele>
        <time>2023-10-30T00:19:51Z</time>
      </trkpt>
      <trkpt lat="47.553" lon="-1.52559">
        <ele>66</ele>
        <time>2023-10-30T00:21:55Z</time>
      </trkpt>
      <trkpt lat="47.55449" lon="-1.52521">
        <ele>62</ele>
        <time>2023-10-30T00:25:16Z</time>
      </trkpt>
      <trkpt lat="47.55458" lon="-1.5252">
        <ele>62</ele>
        <time>2023-10-30T00:25:28Z</time>
      </trkpt>
      <trkpt lat="47.55466" lon="-1.52524">
        <ele>62</ele>
        <time>2023-10-30T00:25:40Z</time>
      </trkpt>
    </trkseg>
  </trk>
</gpx>